KLM1324 EPKK-EHAM

Flight info

Callsign KLM1324
Flight time 1h 37m
Altitude 38000
Route OMFOL T738 EKSEK DCT NAROX DCT ZUCKA DCT NORKU
Aircraft B738/M-SDE2E3FGHIRWXY/LB1

Departure

Time 2026-05-03 22:04
Airport Kraków John Paul II International Airport (EPKK)

Arrival

Time 2026-05-03 23:41
Airport Amsterdam Airport Schiphol (EHAM)
Time Latitude Longitude Altitude Speed Heading
2026-05-03 21:31 50.07574 19.80099 799 ft 0 kts 347°
2026-05-03 21:59 50.07578 19.80097 799 ft 1 kts 347°
2026-05-03 21:59 50.07596 19.80091 799 ft 4 kts 347°
2026-05-03 21:59 50.07624 19.80101 799 ft 5 kts 40°
2026-05-03 21:59 50.07636 19.80159 799 ft 7 kts 77°
2026-05-03 22:00 50.07648 19.80240 799 ft 8 kts 77°
2026-05-03 22:00 50.07661 19.80337 799 ft 10 kts 77°
2026-05-03 22:00 50.07717 19.80380 799 ft 10 kts 347°
2026-05-03 22:00 50.07787 19.80355 799 ft 10 kts 348°
2026-05-03 22:01 50.07816 19.80345 799 ft 3 kts 348°
2026-05-03 22:01 50.07832 19.80340 799 ft 0 kts 348°
2026-05-03 22:02 50.07841 19.80338 799 ft 4 kts 348°
2026-05-03 22:02 50.07891 19.80321 799 ft 11 kts 348°
2026-05-03 22:03 50.07987 19.80285 798 ft 16 kts 335°
2026-05-03 22:03 50.08002 19.80122 800 ft 26 kts 258°
2026-05-03 22:03 50.07910 19.79466 799 ft 97 kts 258°
2026-05-03 22:03 50.07719 19.78135 804 ft 153 kts 255°
2026-05-03 22:04 50.07474 19.76449 1326 ft 158 kts 258°
2026-05-03 22:04 50.07253 19.74773 2049 ft 160 kts 256°
2026-05-03 22:04 50.07026 19.73114 2770 ft 160 kts 254°
2026-05-03 22:04 50.06766 19.71268 3049 ft 189 kts 254°
2026-05-03 22:05 50.06469 19.69153 3251 ft 210 kts 254°
2026-05-03 22:05 50.06140 19.66835 3481 ft 227 kts 254°
2026-05-03 22:05 50.05792 19.64392 3858 ft 235 kts 255°
2026-05-03 22:05 50.05436 19.61860 4242 ft 247 kts 255°
2026-05-03 22:06 50.05056 19.59164 4558 ft 262 kts 255°
2026-05-03 22:06 50.04794 19.57305 4941 ft 268 kts 256°
2026-05-03 22:06 50.04395 19.54472 5774 ft 267 kts 256°
2026-05-03 22:06 50.03997 19.51646 6616 ft 268 kts 256°
2026-05-03 22:07 50.03591 19.48790 7344 ft 272 kts 256°
2026-05-03 22:07 50.03178 19.45894 8096 ft 276 kts 256°
2026-05-03 22:07 50.02780 19.42955 8879 ft 280 kts 261°
2026-05-03 22:07 50.02973 19.39920 9659 ft 288 kts 285°
2026-05-03 22:08 50.03702 19.36992 10413 ft 294 kts 291°
2026-05-03 22:08 50.04552 19.33960 10653 ft 319 kts 292°
2026-05-03 22:08 50.05486 19.30701 10923 ft 339 kts 292°
2026-05-03 22:08 50.06455 19.27312 11558 ft 346 kts 292°
2026-05-03 22:09 50.07427 19.23880 12349 ft 348 kts 292°
2026-05-03 22:09 50.08399 19.20417 13182 ft 350 kts 292°
2026-05-03 22:09 50.09370 19.16930 14001 ft 353 kts 292°
2026-05-03 22:10 50.11332 19.09830 15469 ft 361 kts 292°
2026-05-03 22:10 50.12328 19.06215 16245 ft 364 kts 292°
2026-05-03 22:10 50.13328 19.02573 16998 ft 368 kts 292°
2026-05-03 22:10 50.14340 18.98883 17725 ft 372 kts 292°
2026-05-03 22:11 50.15363 18.95149 18433 ft 377 kts 292°
2026-05-03 22:11 50.16396 18.91374 19075 ft 380 kts 292°
2026-05-03 22:11 50.17434 18.87573 19747 ft 382 kts 292°
2026-05-03 22:11 50.18477 18.83746 20398 ft 385 kts 292°
2026-05-03 22:12 50.19528 18.79881 21033 ft 388 kts 292°
2026-05-03 22:12 50.20572 18.76037 21645 ft 391 kts 292°
2026-05-03 22:12 50.21638 18.72110 22263 ft 394 kts 292°
2026-05-03 22:12 50.22710 18.68152 22875 ft 398 kts 292°
2026-05-03 22:13 50.23782 18.64159 23503 ft 400 kts 292°
2026-05-03 22:13 50.24843 18.60123 23989 ft 403 kts 291°
2026-05-03 22:13 50.25903 18.56057 24514 ft 405 kts 292°
2026-05-03 22:13 50.26970 18.51967 24988 ft 408 kts 292°
2026-05-03 22:14 50.28046 18.47846 25435 ft 411 kts 292°
2026-05-03 22:14 50.29134 18.43677 25845 ft 415 kts 292°
2026-05-03 22:14 50.30226 18.39494 26335 ft 417 kts 292°
2026-05-03 22:14 50.31326 18.35282 26728 ft 420 kts 292°
2026-05-03 22:15 50.32435 18.31034 27124 ft 424 kts 292°
2026-05-03 22:15 50.33552 18.26749 27580 ft 425 kts 292°
2026-05-03 22:15 50.34669 18.22451 28010 ft 428 kts 292°
2026-05-03 22:15 50.35792 18.18119 28374 ft 431 kts 292°
2026-05-03 22:16 50.36923 18.13752 28768 ft 434 kts 292°
2026-05-03 22:16 50.38057 18.09362 29144 ft 436 kts 292°
2026-05-03 22:16 50.39197 18.04939 29496 ft 439 kts 292°
2026-05-03 22:16 50.40344 18.00483 29845 ft 442 kts 292°
2026-05-03 22:17 50.41496 17.95997 30178 ft 445 kts 293°
2026-05-03 22:17 50.42652 17.91486 30471 ft 447 kts 293°
2026-05-03 22:17 50.43811 17.86960 30801 ft 448 kts 293°
2026-05-03 22:17 50.44965 17.82439 31223 ft 446 kts 292°
2026-05-03 22:18 50.46149 17.77966 31706 ft 442 kts 294°
2026-05-03 22:18 50.47405 17.73568 32137 ft 441 kts 295°
2026-05-03 22:18 50.48671 17.69255 32515 ft 440 kts 295°
2026-05-03 22:18 50.49971 17.64843 32902 ft 439 kts 295°
2026-05-03 22:19 50.51229 17.60542 33308 ft 438 kts 295°
2026-05-03 22:19 50.52488 17.56195 33737 ft 436 kts 295°
2026-05-03 22:19 50.53735 17.51858 34107 ft 435 kts 295°
2026-05-03 22:19 50.54975 17.47521 34419 ft 435 kts 295°
2026-05-03 22:20 50.56210 17.43184 34726 ft 434 kts 294°
2026-05-03 22:20 50.57440 17.38854 35046 ft 433 kts 294°
2026-05-03 22:20 50.58667 17.34526 35357 ft 433 kts 294°
2026-05-03 22:20 50.59907 17.30148 35681 ft 432 kts 294°
2026-05-03 22:21 50.61109 17.25893 35976 ft 431 kts 294°
2026-05-03 22:21 50.62326 17.21582 36274 ft 430 kts 294°
2026-05-03 22:21 50.63538 17.17279 36572 ft 430 kts 294°
2026-05-03 22:21 50.64747 17.12979 36867 ft 429 kts 294°
2026-05-03 22:22 50.65953 17.08683 37155 ft 428 kts 294°
2026-05-03 22:22 50.67153 17.04397 37444 ft 427 kts 294°
2026-05-03 22:22 50.68347 17.00130 37854 ft 423 kts 293°
2026-05-03 22:22 50.69536 16.95873 37991 ft 425 kts 293°
2026-05-03 22:23 50.70723 16.91591 38008 ft 427 kts 293°
2026-05-03 22:23 50.73061 16.82990 37997 ft 425 kts 292°
2026-05-03 22:24 50.75370 16.74432 38001 ft 422 kts 292°
2026-05-03 22:24 50.77660 16.65925 38002 ft 420 kts 292°
2026-05-03 22:25 50.79938 16.57448 38007 ft 418 kts 292°
2026-05-03 22:25 50.82200 16.48996 37996 ft 417 kts 292°
2026-05-03 22:26 50.84451 16.40556 37976 ft 416 kts 292°
2026-05-03 22:26 50.86696 16.32112 37996 ft 417 kts 292°
2026-05-03 22:27 50.88953 16.23588 37999 ft 423 kts 292°
2026-05-03 22:27 50.91232 16.14950 37998 ft 424 kts 291°
2026-05-03 22:28 50.93683 16.06539 37980 ft 418 kts 301°
2026-05-03 22:28 50.96936 15.98883 37988 ft 419 kts 303°
2026-05-03 22:29 51.00217 15.91210 37992 ft 421 kts 302°
2026-05-03 22:29 51.03478 15.83467 37976 ft 422 kts 302°
2026-05-03 22:30 51.06737 15.75668 37974 ft 424 kts 302°
2026-05-03 22:30 51.10006 15.67828 37974 ft 426 kts 302°
2026-05-03 22:31 51.12858 15.59593 37971 ft 425 kts 289°
2026-05-03 22:31 51.14248 15.50460 37969 ft 425 kts 280°
2026-05-03 22:32 51.15345 15.41257 37961 ft 426 kts 280°
2026-05-03 22:32 51.16486 15.31928 37964 ft 426 kts 280°
2026-05-03 22:33 51.17631 15.22721 37960 ft 426 kts 280°
2026-05-03 22:33 51.18780 15.13466 37958 ft 426 kts 280°
2026-05-03 22:34 51.19920 15.04215 37960 ft 425 kts 280°
2026-05-03 22:34 51.21081 14.95003 37956 ft 424 kts 281°
2026-05-03 22:35 51.22305 14.85820 37967 ft 423 kts 280°
2026-05-03 22:35 51.23526 14.76638 37957 ft 422 kts 280°
2026-05-03 22:36 51.24728 14.67483 37960 ft 421 kts 280°
2026-05-03 22:36 51.25917 14.58328 37960 ft 421 kts 280°
2026-05-03 22:37 51.27098 14.49172 37962 ft 420 kts 280°
2026-05-03 22:37 51.28268 14.40031 37971 ft 420 kts 279°
2026-05-03 22:38 51.29426 14.30932 37965 ft 421 kts 279°
2026-05-03 22:38 51.30585 14.21757 37963 ft 422 kts 279°
2026-05-03 22:39 51.31740 14.12558 37962 ft 422 kts 279°
2026-05-03 22:39 51.32889 14.03345 37963 ft 423 kts 279°
2026-05-03 22:40 51.34034 13.94099 37962 ft 424 kts 279°
2026-05-03 22:40 51.35172 13.84849 37958 ft 424 kts 279°
2026-05-03 22:41 51.36304 13.75581 37960 ft 425 kts 279°
2026-05-03 22:41 51.37431 13.66288 37950 ft 425 kts 279°
2026-05-03 22:42 51.38550 13.56998 37951 ft 425 kts 278°
2026-05-03 22:42 51.39663 13.47694 37961 ft 425 kts 278°
2026-05-03 22:43 51.40767 13.38403 37946 ft 424 kts 278°
2026-05-03 22:43 51.41861 13.29126 37943 ft 423 kts 278°
2026-05-03 22:44 51.42944 13.19871 37944 ft 422 kts 278°
2026-05-03 22:44 51.44017 13.10645 37941 ft 421 kts 278°
2026-05-03 22:45 51.45079 13.01440 37952 ft 420 kts 277°
2026-05-03 22:45 51.46132 12.92247 37942 ft 419 kts 277°
2026-05-03 22:46 51.47175 12.83071 37942 ft 418 kts 277°
2026-05-03 22:46 51.48209 12.73911 37940 ft 417 kts 277°
2026-05-03 22:47 51.49228 12.64814 37949 ft 417 kts 277°
2026-05-03 22:47 51.50247 12.55659 37966 ft 417 kts 277°
2026-05-03 22:48 51.51258 12.46490 37960 ft 418 kts 277°
2026-05-03 22:48 51.52267 12.37288 37964 ft 418 kts 276°
2026-05-03 22:49 51.53268 12.28081 37971 ft 419 kts 276°
2026-05-03 22:49 51.54265 12.18838 37971 ft 420 kts 276°
2026-05-03 22:50 51.55256 12.09584 37954 ft 421 kts 276°
2026-05-03 22:50 51.56243 12.00298 37942 ft 421 kts 276°
2026-05-03 22:51 51.57216 11.91063 37947 ft 422 kts 276°
2026-05-03 22:51 51.58189 11.81764 37952 ft 422 kts 276°
2026-05-03 22:52 51.59155 11.72456 37944 ft 422 kts 276°
2026-05-03 22:52 51.59957 11.64670 37953 ft 421 kts 276°
2026-05-03 22:53 51.60902 11.55427 37960 ft 421 kts 276°
2026-05-03 22:53 51.61849 11.46079 37958 ft 420 kts 276°
2026-05-03 22:54 51.62776 11.36865 37954 ft 419 kts 276°
2026-05-03 22:54 51.63706 11.27543 37958 ft 419 kts 275°
2026-05-03 22:55 51.64614 11.18360 37956 ft 418 kts 275°
2026-05-03 22:55 51.65521 11.09109 37961 ft 418 kts 275°
2026-05-03 22:56 51.66422 10.99852 37958 ft 418 kts 275°
2026-05-03 22:56 51.67316 10.90601 37952 ft 418 kts 276°
2026-05-03 22:57 51.68608 10.81436 37964 ft 420 kts 280°
2026-05-03 22:57 51.70064 10.72314 37953 ft 421 kts 281°
2026-05-03 22:58 51.71511 10.63160 37965 ft 422 kts 280°
2026-05-03 22:58 51.72934 10.53983 37968 ft 422 kts 280°
2026-05-03 22:59 51.74343 10.44771 37953 ft 423 kts 280°
2026-05-03 22:59 51.75747 10.35533 37962 ft 424 kts 280°
2026-05-03 23:00 51.77143 10.26284 37969 ft 425 kts 279°
2026-05-03 23:00 51.78537 10.17006 37974 ft 425 kts 279°
2026-05-03 23:01 51.79923 10.07726 37967 ft 425 kts 279°
2026-05-03 23:01 51.81300 9.98444 37967 ft 424 kts 279°
2026-05-03 23:02 51.82667 9.89186 37959 ft 423 kts 279°
2026-05-03 23:02 51.84014 9.80001 37967 ft 422 kts 279°
2026-05-03 23:03 51.85360 9.70770 37967 ft 422 kts 279°
2026-05-03 23:03 51.86697 9.61548 37962 ft 421 kts 279°
2026-05-03 23:04 51.88025 9.52333 37957 ft 420 kts 279°
2026-05-03 23:04 51.89341 9.43140 37967 ft 419 kts 278°
2026-05-03 23:05 51.90651 9.33938 37970 ft 419 kts 278°
2026-05-03 23:05 51.91953 9.24732 37968 ft 419 kts 278°
2026-05-03 23:06 51.93248 9.15519 37960 ft 419 kts 278°
2026-05-03 23:06 51.94537 9.06298 37957 ft 420 kts 278°
2026-05-03 23:07 51.95821 8.97050 37957 ft 420 kts 278°
2026-05-03 23:07 51.97099 8.87797 37955 ft 421 kts 278°
2026-05-03 23:08 51.98371 8.78521 37962 ft 422 kts 278°
2026-05-03 23:08 51.99637 8.69229 37959 ft 422 kts 278°
2026-05-03 23:09 52.00900 8.59908 37943 ft 423 kts 278°
2026-05-03 23:09 52.02160 8.50538 37458 ft 428 kts 278°
2026-05-03 23:09 52.02791 8.45827 36925 ft 425 kts 278°
2026-05-03 23:10 52.03417 8.41153 36405 ft 423 kts 277°
2026-05-03 23:10 52.04038 8.36492 35835 ft 422 kts 277°
2026-05-03 23:10 52.04646 8.31920 35450 ft 417 kts 277°
2026-05-03 23:10 52.05254 8.27330 35004 ft 413 kts 276°
2026-05-03 23:11 52.05854 8.22785 34576 ft 410 kts 276°
2026-05-03 23:11 52.06446 8.18282 34157 ft 406 kts 276°
2026-05-03 23:11 52.07031 8.13814 33707 ft 402 kts 276°
2026-05-03 23:11 52.07609 8.09384 33235 ft 398 kts 276°
2026-05-03 23:12 52.08178 8.05011 32831 ft 393 kts 276°
2026-05-03 23:12 52.08741 8.00678 32420 ft 389 kts 276°
2026-05-03 23:12 52.09295 7.96393 32007 ft 385 kts 276°
2026-05-03 23:12 52.09841 7.92152 31612 ft 381 kts 276°
2026-05-03 23:13 52.10381 7.87952 31218 ft 377 kts 276°
2026-05-03 23:13 52.10914 7.83796 30847 ft 374 kts 276°
2026-05-03 23:13 52.11434 7.79721 30469 ft 371 kts 276°
2026-05-03 23:13 52.11954 7.75640 30078 ft 367 kts 276°
2026-05-03 23:14 52.12475 7.71534 29637 ft 364 kts 276°
2026-05-03 23:14 52.12983 7.67526 29251 ft 359 kts 276°
2026-05-03 23:14 52.13482 7.63574 28846 ft 355 kts 276°
2026-05-03 23:14 52.13975 7.59661 28466 ft 351 kts 276°
2026-05-03 23:15 52.14461 7.55788 28082 ft 349 kts 276°
2026-05-03 23:15 52.14947 7.51889 27683 ft 354 kts 276°
2026-05-03 23:15 52.15438 7.47942 27280 ft 354 kts 276°
2026-05-03 23:15 52.15924 7.44037 26900 ft 350 kts 276°
2026-05-03 23:16 52.16406 7.40168 26495 ft 347 kts 276°
2026-05-03 23:16 52.16882 7.36329 26126 ft 344 kts 276°
2026-05-03 23:16 52.17352 7.32526 25740 ft 341 kts 276°
2026-05-03 23:16 52.17810 7.28804 25370 ft 339 kts 276°
2026-05-03 23:17 52.18271 7.25041 24998 ft 338 kts 276°
2026-05-03 23:17 52.18729 7.21297 24627 ft 338 kts 276°
2026-05-03 23:17 52.19188 7.17525 24258 ft 340 kts 277°
2026-05-03 23:17 52.19649 7.13735 23880 ft 341 kts 277°
2026-05-03 23:18 52.20109 7.09960 23497 ft 339 kts 277°
2026-05-03 23:18 52.20565 7.06202 23050 ft 337 kts 277°
2026-05-03 23:18 52.21016 7.02472 22641 ft 334 kts 277°
2026-05-03 23:18 52.21514 6.98797 22270 ft 333 kts 284°
2026-05-03 23:19 52.22598 6.95446 21939 ft 337 kts 301°
2026-05-03 23:19 52.24053 6.92450 21557 ft 338 kts 304°
2026-05-03 23:19 52.25564 6.89508 21198 ft 338 kts 304°
2026-05-03 23:19 52.27077 6.86567 20819 ft 338 kts 304°
2026-05-03 23:20 52.28575 6.83618 20445 ft 337 kts 304°
2026-05-03 23:20 52.30062 6.80655 20072 ft 337 kts 304°
2026-05-03 23:20 52.31535 6.77698 19701 ft 334 kts 304°
2026-05-03 23:20 52.32995 6.74760 19337 ft 332 kts 304°
2026-05-03 23:21 52.34451 6.71827 18874 ft 333 kts 304°
2026-05-03 23:21 52.35911 6.68885 18488 ft 332 kts 304°
2026-05-03 23:21 52.37361 6.65961 18106 ft 330 kts 304°
2026-05-03 23:21 52.38804 6.63050 17693 ft 328 kts 304°
2026-05-03 23:22 52.41655 6.57288 16947 ft 323 kts 304°
2026-05-03 23:22 52.43041 6.54482 16592 ft 320 kts 304°
2026-05-03 23:22 52.44437 6.51654 16239 ft 317 kts 304°
2026-05-03 23:23 52.45815 6.48853 15890 ft 314 kts 303°
2026-05-03 23:23 52.46824 6.45762 15531 ft 304 kts 282°
2026-05-03 23:23 52.47173 6.42390 15181 ft 299 kts 272°
2026-05-03 23:23 52.47344 6.39006 14821 ft 297 kts 271°
2026-05-03 23:24 52.47486 6.35635 14467 ft 296 kts 271°
2026-05-03 23:24 52.47629 6.32277 14129 ft 294 kts 271°
2026-05-03 23:24 52.47778 6.28933 13790 ft 293 kts 271°
2026-05-03 23:24 52.47932 6.25607 13417 ft 292 kts 271°
2026-05-03 23:25 52.48090 6.22300 13053 ft 290 kts 271°
2026-05-03 23:25 52.48248 6.19011 12710 ft 288 kts 272°
2026-05-03 23:25 52.48406 6.15746 12374 ft 286 kts 272°
2026-05-03 23:25 52.48563 6.12500 12039 ft 284 kts 272°
2026-05-03 23:26 52.48719 6.09273 11716 ft 285 kts 272°
2026-05-03 23:26 52.48873 6.06028 11395 ft 287 kts 272°
2026-05-03 23:26 52.49028 6.02772 11056 ft 285 kts 272°
2026-05-03 23:26 52.49182 5.99533 10703 ft 284 kts 272°
2026-05-03 23:27 52.49333 5.96305 10359 ft 283 kts 272°
2026-05-03 23:27 52.49483 5.93112 10178 ft 276 kts 272°
2026-05-03 23:27 52.49629 5.90013 10037 ft 268 kts 272°
2026-05-03 23:27 52.49769 5.87004 9853 ft 263 kts 272°
2026-05-03 23:28 52.49906 5.84022 9544 ft 261 kts 272°
2026-05-03 23:28 52.50042 5.81056 9256 ft 259 kts 272°
2026-05-03 23:28 52.50176 5.78114 8972 ft 258 kts 272°
2026-05-03 23:28 52.50308 5.75191 8690 ft 256 kts 272°
2026-05-03 23:29 52.50439 5.72290 8417 ft 254 kts 272°
2026-05-03 23:29 52.50569 5.69411 8135 ft 253 kts 272°
2026-05-03 23:29 52.50698 5.66536 7843 ft 251 kts 272°
2026-05-03 23:29 52.50824 5.63684 7573 ft 250 kts 272°
2026-05-03 23:30 52.50948 5.60878 7305 ft 249 kts 272°
2026-05-03 23:30 52.51048 5.58050 7026 ft 247 kts 266°
2026-05-03 23:30 52.50604 5.55370 6795 ft 244 kts 244°
2026-05-03 23:30 52.49797 5.52897 6558 ft 248 kts 240°
2026-05-03 23:31 52.48921 5.50450 6337 ft 250 kts 239°
2026-05-03 23:31 52.48033 5.48002 6082 ft 249 kts 239°
2026-05-03 23:31 52.47157 5.45576 5822 ft 246 kts 240°
2026-05-03 23:31 52.46508 5.43003 5526 ft 244 kts 253°
2026-05-03 23:32 52.46053 5.40309 5217 ft 244 kts 254°
2026-05-03 23:32 52.45602 5.37633 4940 ft 243 kts 254°
2026-05-03 23:32 52.45147 5.34984 4671 ft 241 kts 254°
2026-05-03 23:32 52.44688 5.32353 4396 ft 239 kts 254°
2026-05-03 23:33 52.44227 5.29748 4140 ft 237 kts 253°
2026-05-03 23:33 52.43771 5.27189 4029 ft 230 kts 253°
2026-05-03 23:33 52.43321 5.24684 3930 ft 227 kts 253°
2026-05-03 23:33 52.42880 5.22247 3824 ft 219 kts 253°
2026-05-03 23:34 52.42454 5.19896 3723 ft 212 kts 253°
2026-05-03 23:34 52.42042 5.17627 3622 ft 204 kts 253°
2026-05-03 23:34 52.41649 5.15471 3537 ft 197 kts 253°
2026-05-03 23:34 52.41256 5.13315 3353 ft 198 kts 253°
2026-05-03 23:35 52.40864 5.11164 3194 ft 196 kts 253°
2026-05-03 23:35 52.40474 5.09030 2988 ft 189 kts 253°
2026-05-03 23:35 52.40100 5.06996 2780 ft 183 kts 253°
2026-05-03 23:35 52.39737 5.05021 2559 ft 178 kts 253°
2026-05-03 23:36 52.39389 5.03127 2353 ft 173 kts 253°
2026-05-03 23:36 52.39045 5.01263 2159 ft 169 kts 253°
2026-05-03 23:36 52.38702 4.99417 2046 ft 171 kts 250°
2026-05-03 23:36 52.38127 4.97722 2009 ft 170 kts 237°
2026-05-03 23:37 52.37519 4.96142 2000 ft 158 kts 239°
2026-05-03 23:37 52.36944 4.94629 1996 ft 156 kts 239°
2026-05-03 23:37 52.36363 4.93112 1995 ft 158 kts 239°
2026-05-03 23:37 52.35807 4.91664 1959 ft 146 kts 239°
2026-05-03 23:38 52.35283 4.90302 1818 ft 142 kts 239°
2026-05-03 23:38 52.34770 4.88970 1618 ft 134 kts 239°
2026-05-03 23:38 52.34290 4.87721 1442 ft 126 kts 239°
2026-05-03 23:38 52.33831 4.86528 1289 ft 124 kts 239°
2026-05-03 23:39 52.33369 4.85326 1118 ft 125 kts 239°
2026-05-03 23:39 52.32906 4.84123 956 ft 125 kts 239°
2026-05-03 23:39 52.32443 4.82915 790 ft 125 kts 238°
2026-05-03 23:39 52.32136 4.82118 690 ft 126 kts 238°
2026-05-03 23:40 52.31667 4.80899 519 ft 126 kts 238°
2026-05-03 23:40 52.31201 4.79682 356 ft 126 kts 237°
2026-05-03 23:40 52.30736 4.78464 165 ft 126 kts 237°
2026-05-03 23:40 52.30273 4.77263 9 ft 123 kts 237°
2026-05-03 23:41 52.29865 4.76207 -7 ft 98 kts 238°
2026-05-03 23:41 52.29750 4.75841 -5 ft 10 kts 314°
2026-05-03 23:41 52.29787 4.75820 -5 ft 4 kts 357°
2026-05-03 23:41 52.29811 4.75827 -4 ft 4 kts 19°
2026-05-03 23:42 52.29837 4.75850 -5 ft 5 kts 29°
2026-05-03 23:42 52.29873 4.75881 -4 ft 6 kts 27°
2026-05-03 23:42 52.29918 4.75920 -4 ft 10 kts 28°
2026-05-03 23:42 52.29997 4.75957 -3 ft 14 kts 353°
2026-05-03 23:43 52.30094 4.75991 -3 ft 18 kts 58°
2026-05-03 23:43 52.30167 4.76185 -3 ft 22 kts 58°
2026-05-03 23:43 52.30255 4.76415 -3 ft 26 kts 58°
2026-05-03 23:43 52.30308 4.76553 -3 ft 1 kts 57°
2026-05-03 23:44 52.30310 4.76560 -3 ft 1 kts 57°
2026-05-03 23:44 52.30315 4.76570 -3 ft 1 kts 52°
2026-05-03 23:44 52.30323 4.76579 -3 ft 2 kts 27°
2026-05-03 23:44 52.30345 4.76586 -3 ft 6 kts
2026-05-03 23:45 52.30403 4.76542 -3 ft 11 kts 327°
2026-05-03 23:45 52.30448 4.76519 -3 ft 0 kts 29°
2026-05-03 23:45 52.30449 4.76519 -3 ft 0 kts 30°
2026-05-03 23:46 52.30455 4.76532 -3 ft 3 kts 55°
2026-05-03 23:46 52.30463 4.76555 -3 ft 0 kts 58°
2026-05-03 23:46 52.30465 4.76559 -3 ft 0 kts 59°